Regional Weather Roundup
Issued by NWS Portland, ME

Current Version | Previous Version | Text Only | Print | Product List | Glossary Off
Versions: 1 2 3 4 5 6 7 8 9 10 11 12 13 14 15 16 17 18 19 20 21 22 23 24 25 26 27 28 29 30 31 32 33 34 35 36 37 38 39 40 41 42 43 44 45 46 47 48 49 50
000 ASUS41 KGYX 200705 RWRGYX WEATHER ROUNDUP FOR MAINE AND NEW HAMPSHIRE NATIONAL WEATHER SERVICE GRAY ME 300 AM EDT WED MAR 20 2019 MEZ002-005-006-010-012-015-018-020-021-024-026-027-029-200800- MAINE CITY SKY/WX TMP DP RH WIND PRES REMARKS PORTLAND FAIR 23 12 62 CALM 30.41S SANFORD FAIR 16 13 88 CALM 30.41S BAR HARBOR FAIR 23 3 42 NW5 30.39F WISCASSET FAIR 18 14 84 CALM 30.41F ROCKLAND FAIR 17 13 84 CALM 30.40S FRYEBURG FAIR 11 5 77 W3 30.39S LEWISTONAUBURN FAIR 15 9 76 CALM 30.39F AUGUSTA FAIR 21 3 45 CALM 30.38S WATERVILLE FAIR 17 8 67 N3 30.35F BANGOR FAIR 18 7 62 CALM 30.38F GREENVILLE N/A 12 -5 46 CALM 30.25F MILLINOCKET FAIR 10 2 69 CALM 30.35S HOULTON FAIR -1 -5 82 CALM 30.30F PRESQUE ISLE FAIR 2 -3 80 CALM 30.30F FRENCHVILLE FAIR 14 -3 47 W6 30.22F CARIBOU FAIR 6 -4 63 CALM 30.26F $$ NHZ002-005-008-009-011-012-014-200800- NEW HAMPSHIRE CITY SKY/WX TMP DP RH WIND PRES REMARKS ROCHESTER FAIR 19 12 74 N3 30.39S NASHUA FAIR 22 18 85 CALM 30.40F MANCHESTER FAIR 24 15 68 N3 30.39S CONCORD FAIR 19 14 81 CALM 30.40S LACONIA FAIR 17 11 77 CALM 30.39S PLYMOUTH FAIR 12 9 90 CALM 30.40S BERLIN FAIR 4 0 83 CALM 30.33F WHITEFIELD FAIR 11 5 77 CALM 30.34F JAFFREY FAIR 21 18 88 CALM 30.35F KEENE FAIR 18 16 92 CALM 30.40S LEBANON FAIR 19 10 68 CALM 30.38S MT WASHINGTON CLEAR 1 0 92 W38 N/A WCI -26 $$ VTZ005-007-008-200800- VERMONT CITY SKY/WX TMP DP RH WIND PRES REMARKS ST JOHNSBURY N/A 13 8 81 MISG 30.36S MONTPELIER FAIR 12 6 77 CALM 30.37S BURLINGTON FAIR 22 13 68 CALM 30.36S $$ MAZ007-012-024-CTZ003-RIZ002-NYZ038-NYZ072-200800- SOUTHERN NEW ENGLAND AND NY CITY SKY/WX TMP DP RH WIND PRES REMARKS BOSTON FAIR 35 15 44 W6 30.41S WORCESTER FAIR 28 15 58 W7 30.36S NANTUCKET FAIR 33 28 81 NW6 30.41S PROVIDENCE FAIR 29 18 63 SW3 30.41F HARTFORD MOCLDY 29 21 72 W3 30.41S ALBANY MOCLDY 30 20 66 CALM 30.40S NEW YORK CITY FAIR 39 27 62 S6 30.40F $$ ANZ081-ANZ082-ANZ150-NHZ014-MEZ023>029-200800- COASTAL MARINE OBSERVATIONS STATION/POSITION TIME TEMP WIND PRES WAVE AIR SEA DIR/SP/G HT/PER (UTC) (F) (DEG/KT/KT) (MB) (FT/S) MOUNT DESERT ROC 0700 31 290/ 13/ 15 1028.8F MATINICUS ROCK 0600 33 320/ 12/ 13 1028.9R ISLE OF SHOALS 0600 36 50/ 4/ 4 1029.4R CASHES LEDGE BUO 0650 34 39 1029.6R 2/ 3 $$ .............KEY.............. WCI - WIND CHILL TC - TEMPERATURE IN CELSIUS VSB - VISIBILITY IN MILES HX - HEAT INDEX FAIR- INDICATES FEW OR NO CLOUDS BELOW 12,000 FT, WITH NO SIGNIFICANT WEATHER AND/OR OBSTRUCTIONS TO VISIBILITY.

USA.gov is the U.S. government's official web portal to all federal, state and local government web resources and services.